645 Apache Point-Sloan Digital Sky Survey. Observer . Measurer S. Deen.
2.5-m reflector + CCD.
950 La Palma. Observer . Measurer S. Deen. 2.5-m Isaac Newton Telescope +
CCD.
T09 Subaru Telescope, Maunakea. Observers H. Aihara, Y. AlSayyad, M. Ando, R.
Armstrong, J. Bosch, E. Egami, H. Furusawa, J. Furusawa, S. Harasawa, Y.
Harikane, B.-C. Hsieh, H. Ikeda, K. Ito, I. Iwata, T. Kodama, M. Koike, M.
Kokubo, Y. Komiyama, X. Li, Y. Liang, Y.-T. Lin, R. H. Lupton, N. B. Lust,
L. A. MacArthur, K. Mawatari, S. Mineo, H. Miyatake, S. Miyazaki, S. More,
T. Morishima, H. Murayama, K. Nakajima, F. Nakata, A. J. Nishizawa, M.
Oguri, N. Okabe, Y. Okura, Y. Ono, K. Osato, M. Ouchi, Y.-C. Pan, A. A.
Plazas Malagon, P. A. Price, S. L. Reed, E. S. Rykoff, T. Shibuya, M.
Simunovic, M. A. Strauss, K. Sugimori, Y. Suto, N. Suzuki, M. Takada, Y.
Takagi, T. Takata, S. Takita, M. Tanaka, S. Tang, D. S. Taranu, T. Terai,
Y. Toba, E. L. Turner, H. Uchiyama, B. Vijarnwannaluk, C. Z. Waters, Y.
Yamada, N. Yamamoto, T. Yamashita. Measurers H. Fukuyama, K. Hirakawa, Y.
Kamikawa, H. A. Guler, A. Yamauchi. 8.2-m f/2.0 reflector + CCD(HSC).
W84 Cerro Tololo-DECam. Observer S. Sheppard. Measurer S. Deen. 4.0-m
reflector + CCD.
W91 VHS-VISTA, Cerro Paranal. Observer . Measurer S. Deen. 4.1-m f/3.26
reflector + CCD.
Orbital elements:
2015 DX248
Epoch 2024 Mar. 31.0 TT = JDT 2460400.5 Alexandersen
M 15.41716 (2000.0) P Q
n 0.00372250 Peri. 329.47584 -0.79040130 -0.61017334
a 41.2331503 Node 172.21005 +0.61108221 -0.79156713
e 0.0813259 Incl. 23.64122 +0.04294564 +0.03331632
P 265 H 7.86 G 0.15 U 4
Residuals in seconds of arc
010220 645 0.3+ 0.3+ 161225 T09 0.0 0.0 170123 T09 0.0 0.1+
010220 645 0.1+ 0.3+ 161225 T09 0.3+ 0.0 170123 T09 0.3- 0.0
010220 645 0.4- 0.1- 170102 T09 0.1- 0.2+ 170123 T09 0.0 0.1+
100125 W91 0.2+ 0.0 170102 T09 0.0 0.2+ 170123 T09 0.1+ 0.1-
100125 W91 0.1- 0.1+ 170102 T09 0.1- 0.1+ 170123 T09 0.0 0.0
100220 W91 0.1- 0.2+ 170102 T09 0.1+ 0.1+ 170125 T09 0.1- 0.1+
100220 W91 0.2+ 0.1- 170102 T09 0.0 0.0 170125 T09 0.1+ 0.0
100315 950 0.2- 0.3+ 170102 T09 0.1+ 0.2+ 170125 T09 0.0 0.1+
150217 W84 0.1+ 0.3- 170102 T09 0.4+ 0.0 170125 T09 0.1- 0.3+
150217 W84 0.2+ 0.4- 170102 T09 0.0 0.1+ 170130 T09 0.1- 0.1+
150217 W84 0.1- 0.1- 170102 T09 0.1- 0.1+ 170130 T09 0.1- 0.0
150218 W84 0.2+ 0.3- 170102 T09 0.0 0.0 170130 T09 0.1+ 0.2+
150218 W84 0.0 0.6- 170102 T09 0.1+ 0.1- 170130 T09 0.1+ 0.1+
150218 W84 0.3+ 0.2- 170102 T09 0.0 0.1- 170130 T09 0.1+ 0.0
150219 W84 0.4+ 0.7- 170102 T09 0.0 0.0 170130 T09 0.0 0.0
150219 W84 0.3- 0.7- 170102 T09 0.0 0.1- 170130 T09 0.2- 0.2+
150219 W84 0.3+ 0.3- 170102 T09 0.1- 0.1- 170130 T09 0.1- 0.1-
150219 W84 0.3+ 0.3- 170102 T09 0.1+ 0.3+ 170130 T09 0.0 0.0
150222 W84 0.2+ 0.7- 170102 T09 0.0 0.1+ 170130 T09 0.1- 0.2+
150222 W84 0.8- 0.4- 170102 T09 0.1- 0.0 170130 T09 0.3- 0.1+
161123 T09 0.0 0.1+ 170102 T09 0.0 0.1+ 170130 T09 0.0 0.0
161123 T09 0.0 0.2+ 170102 T09 0.1- 0.1+ 170130 T09 0.0 0.1+
161123 T09 0.0 0.0 170102 T09 0.1+ 0.1- 170201 T09 0.1+ 0.1+
161123 T09 0.1+ 0.1+ 170102 T09 0.1- 0.0 170201 T09 0.1- 0.1+
161123 T09 0.1+ 0.1+ 170102 T09 0.1+ 0.1+ 170201 T09 0.1- 0.2+
161123 T09 0.0 0.1+ 170121 T09 0.1- 0.1- 170201 T09 0.1- 0.1-
161128 T09 0.0 0.1+ 170121 T09 0.1- 0.0 170201 T09 0.0 0.3+
161128 T09 0.0 0.0 170121 T09 0.2- 0.1- 170201 T09 0.1- 0.1+
161128 T09 0.1+ 0.1+ 170121 T09 0.1- 0.2+ 170201 T09 0.0 0.3+
161128 T09 0.0 0.0 170121 T09 0.0 0.0 170202 T09 0.1+ 0.1+
161128 T09 0.1+ 0.2- 170121 T09 0.1- 0.1+ 170202 T09 0.0 0.1+
161129 T09 0.2- 0.1- 170121 T09 0.2- 0.1- 170202 T09 0.1- 0.2+
161129 T09 0.0 0.0 170121 T09 0.1- 0.0 170202 T09 0.2+ 0.1+
161129 T09 0.0 0.1+ 170121 T09 0.0 0.1- 170221 T09 0.0 0.1+
161129 T09 0.0 0.1+ 170121 T09 0.1+ 0.1+ 170221 T09 0.1- 0.2+
161129 T09 0.2- 0.0 170121 T09 0.1- 0.2+ 170221 T09 0.0 0.0
161129 T09 0.0 0.2+ 170121 T09 0.1+ 0.1+ 170221 T09 0.3- 0.0
161223 T09 0.0 0.2+ 170121 T09 0.2- 0.1+ 170223 T09 0.2- 0.0
161223 T09 0.2- 0.1+ 170121 T09 0.0 0.1+ 170223 T09 0.0 0.2+
161223 T09 0.0 0.0 170121 T09 0.1- 0.1+ 170223 T09 0.2- 0.1-
161223 T09 0.0 0.2+ 170121 T09 0.3- 0.2+ 170223 T09 0.2- 0.2+
161223 T09 0.0 0.0 170121 T09 0.0 0.2+ 170223 T09 0.1- 0.0
161223 T09 0.0 0.0 170121 T09 0.1- 0.2- 190205 T09 0.1+ 0.0
161223 T09 0.1+ 0.2+ 170123 T09 0.1+ 0.1+ 190205 T09 0.1+ 0.0
161223 T09 0.1+ 0.2+ 170123 T09 0.0 0.0 190205 T09 0.2+ 0.2-
161225 T09 0.1+ 0.1- 170123 T09 0.0 0.1- 190205 T09 0.1+ 0.2+
161225 T09 0.1+ 0.1+ 170123 T09 0.0 0.0 190205 T09 0.0 0.1+
161225 T09 0.1- 0.0 170123 T09 0.0 0.2+ 190205 T09 0.1+ 0.2+
161225 T09 0.2+ 0.1- 170123 T09 0.1- 0.0 190304 W84 0.1+ 0.3+
161225 T09 0.1- 0.2- 170123 T09 0.2- 0.1- 190305 W84 0.0 0.2+
Ephemeris:
2015 DX248 a,e,i = 41.23, 0.08, 24 q = 37.8798
Date TT R. A. (2000) Decl. Delta r Elong. Phase V
2024 01 30 10 43 33.6 +02 31 37 37.1840 38.0182 147.5 0.8 23.7
...
2024 02 14 10 42 27.0 +02 39 07 37.0759 38.0192 162.6 0.4 23.7
...
2024 02 22 10 41 48.6 +02 43 38 37.0449 38.0197 170.2 0.3 23.7
...
2024 02 28 10 41 19.3 +02 47 12 37.0343 38.0201 174.4 0.1 23.6
2024 02 29 10 41 14.3 +02 47 48 37.0336 38.0202 174.7 0.1 23.6
2024 03 01 10 41 09.4 +02 48 25 37.0332 38.0202 174.9 0.1 23.6
...
2024 03 07 10 40 40.1 +02 52 06 37.0373 38.0206 172.2 0.2 23.7
...
2024 03 15 10 40 01.9 +02 57 04 37.0598 38.0212 165.0 0.4 23.7
...
2024 03 30 10 38 56.1 +03 06 13 37.1517 38.0222 150.3 0.7 23.7
M. P. C. Staff (C) Copyright 2024 MPC M.P.E.C. 2024-D137
More information about the Iaude
mailing list